User: anonymous   Login
Location: Unspecified
(41.1637°N, 0.0000°E)
Time: 19:00:50
(UTC+00:00)
Language:

TIGRISAT - Orbit

View from above orbital plane
View from above orbital plane
View from above satellite
View from above satellite

Ground track
Ground track

The orbit data is extracted from the following two-line orbital elements,

1 40043U 14033AK  19264.50839910  .00000077  00000-0  18746-4 0  9993
2 40043  97.7437 128.2407 0060599 149.5729 210.9020 14.74291491282570
Epoch (UTC): 21 September 2019 12:12:05
Eccentricity: 0.0060599
inclination: 97.7437°
perigee height: 605 km
apogee height: 690 km
right ascension of ascending node: 128.2407°
argument of perigee: 149.5729°
revolutions per day: 14.74291491
mean anomaly at epoch: 210.9020°
orbit number at epoch: 28257

The dashed part of the orbit path shows where the satellite is in the earth's shadow,  

DLR